Content
SEND FEEDBACK

Daily
Averages
Monthly
Summary
Philippines

MANILA, PHILIPPINES


Home > Asia > Philippines
Elevation: 49 feet     Latitude: 14 31N     Longitude: 121 00E

WEATHER
 
SELECT A DAY
Number of Records: 172,421;   Date Range: 7/1/96 - 7/23/14
 
SHARE

PRINT THIS DATA

[ ← Previous Day ]
WEATHER ALMANAC - MAY 14, 2013
[ Next Day → ]
[ °C ]   °F
Weather ElementAverageHighLow
Temperature83.9 °F91.4 °F (11:00 am)78.8 °F (10:00 pm)
Dewpoint77.7 °F80 °F (2:00 pm)73.4 °F (10:00 am)
Humidity81.2 %98 % (8:00 pm)54 % (11:00 am)
Barometer29.76 in29.83 in (10:00 pm)29.71 in (1:40 pm)
Wind Speed4.7 mph11.5 mph (4:00 pm)
Weather ElementAverage
Visibility5.9 mi
Wind DirectionSE (132.4 °)

Weather ElementTotal
Precipitation---
Cooling Degree Days20.1 (Base 65)
Growing Degree Days35.1 (Base 50)
Averaged from 33 records on May 14, 2013
WEATHER CONDITIONS BREAKOUT
WIND DIRECTION BREAKOUT
WEATHER BY HOUR - MAY 14, 2013
[ °C ]   °F
Local TimeTemperatureDewpointHumidityBarometerVisibilityWind DirectionWind SpeedGust SpeedPrecipitationEventsConditions
1:00 AM80.6 °F77.0 °F89 %29.77 in6.2 miVariable2.3 mphMostly Cloudy
2:00 AM81.0 °F76.0 °F82 %29.78 in6.0 miSE (130°)2.2 mphHaze
2:00 AM80.6 °F77.0 °F89 %29.77 in6.2 miVariable2.3 mphScattered Clouds
3:00 AM80.6 °F78.8 °F94 %29.74 in6.2 miESE (120°)3.5 mphScattered Clouds
5:00 AM80.0 °F78.0 °F92 %29.76 in6.0 miSouth (180°)2.2 mphHaze
5:00 AM80.6 °F78.8 °F94 %29.77 in5.6 miSouth (180°)3.5 mphScattered Clouds
6:00 AM80.6 °F78.8 °F94 %29.77 in5.6 miSSE (150°)3.5 mphScattered Clouds
7:00 AM82.4 °F78.8 °F89 %29.80 in6.2 miSE (130°)3.5 mphScattered Clouds
8:00 AM86.0 °F77.0 °F74 %29.80 in6.2 miESE (120°)4.6 mphScattered Clouds
8:00 AM85.0 °F77.0 °F71 %29.81 in6.0 miESE (120°)4.5 mphHaze
9:00 AM87.8 °F77.0 °F70 %29.80 in6.2 miESE (120°)8.1 mphScattered Clouds
10:00 AM89.6 °F73.4 °F59 %29.80 in6.2 miESE (120°)6.9 mphScattered Clouds
11:00 AM90.0 °F76.0 °F54 %29.79 in6.0 miSE (130°)4.5 mphHaze
11:00 AM91.4 °F75.2 °F59 %29.77 in6.2 miSE (130°)5.8 mphScattered Clouds
12:00 PM91.4 °F77.0 °F63 %29.77 in6.2 miEast (80°)6.9 mphScattered Clouds
12:40 PM89.6 °F77.0 °F66 %29.74 in5.6 miSSE (150°)5.8 mphThunderstormThunderstorm
1:00 PM86.0 °F77.0 °F74 %29.74 in6.2 miWSW (250°)10.4 mphMostly Cloudy
1:40 PM84.2 °F78.8 °F84 %29.71 in5.6 miSW (230°)6.9 mphRainLight Rain Showers
2:00 PM85.0 °F80.0 °F79 %29.72 in6.0 miSW (230°)4.5 mphRainLight Rain
2:00 PM86.0 °F78.8 °F79 %29.71 in6.2 miSW (230°)5.8 mphRainLight Rain
3:00 PM86.0 °F78.8 °F79 %29.71 in6.2 miSW (230°)5.8 mphRainLight Rain
4:00 PM87.8 °F77.0 °F70 %29.71 in6.2 miSE (130°)11.5 mphMostly Cloudy
5:00 PM84.0 °F78.0 °F76 %29.73 in6.0 miEast (80°)6.7 mphHaze
5:00 PM84.2 °F77.0 °F79 %29.71 in5.6 miEast (80°)6.9 mphMostly Cloudy
6:00 PM84.2 °F75.2 °F74 %29.74 in5.6 miSSE (160°)3.5 mphMostly Cloudy
6:47 PM82.4 °F78.8 °F89 %29.74 in5.6 miSSW (210°)2.3 mphRainLight Rain
7:00 PM82.4 °F78.8 °F89 %29.77 in5.6 miSE (140°)4.6 mphRainLight Rain
8:00 PM80.0 °F80.0 °F98 %29.78 in6.0 miSW (230°)4.5 mphRainRain
8:00 PM80.6 °F78.8 °F94 %29.77 in5.6 miSW (230°)3.5 mphRainRain
9:00 PM80.6 °F78.8 °F94 %29.80 inCalmRainLight Rain
10:00 PM78.8 °F77.0 °F94 %29.83 in5.6 miENE (60°)4.6 mphRainLight Rain
11:00 PM80.0 °F79.0 °F95 %29.81 in6.0 miNNE (20°)2.2 mphRainLight Rain
11:00 PM80.6 °F78.8 °F94 %29.80 in5.6 miVariable2.3 mphRainLight Rain
Hourly data recorded from RPLL, located miles away from Manila, Philippines







STORIES FROM OUR PARTNERS